SCP
2 2 2 2 1 1 0 0 0 0 0 0 0 0 0 0 0 0 0 0 0 0 0 0 0 0 0 1 1 1 1 1 1 0 1 1 1 1 1 1 2 1 1
2 2 2 2 1 1 0 0 0 0 0 0 0 0 0 0 0 0 0 0 0 0 0 0 0 0 0 1 1 1 1 1 0 0 0 1 1 1 1 1 1 1 1
2 2 2 1 1 1 0 1 1 0 0 0 0 0 0 0 0 0 0 0 0 0 0 0 0 0 0 0 0 0 0 0 0 0 0 0 1 1 1 1 1 1 1
3 2 2 1 1 1 1 1 1 1 0 0 0 0 0 0 0 0 0 0 0 0 0 0 0 0 0 0 0 0 0 0 0 0 0 0 0 1 1 1 1 1 1
3 2 2 1 1 1 1 1 1 1 0 0 0 0 0 0 0 0 0 0 0 0 0 0 0 0 0 0 0 0 0 0 0 0 0 0 0 0 1 1 1 1 1
3 3 2 1 1 1 1 1 1 1 1 0 0 0 0 0 0 0 0 0 0 0 0 0 0 0 0 0 0 0 0 0 0 0 0 0 0 0 0 1 1 1 1
3 3 3 2 1 1 1 1 1 1 1 1 0 0 0 0 0 0 0 0 0 0 0 0 0 0 0 0 0 0 0 0 0 0 0 0 0 0 0 1 1 1 1
3 3 3 2 1 1 1 1 2 1 1 1 1 1 0 0 0 0 0 0 0 0 0 0 0 0 0 0 0 0 0 0 0 0 0 0 0 0 0 0 1 1 1
3 3 3 3 2 2 2 2 2 2 1 1 1 1 1 1 0 0 0 0 0 0 0 0 0 0 0 0 0 0 0 0 0 0 0 0 0 0 0 0 1 1 0
2 2 3 3 3 3 3 3 3 2 1 1 1 1 1 1 0 0 0 0 0 0 0 0 0 0 0 0 0 0 0 0 0 0 0 0 0 0 0 0 1 1 1
1 2 2 3 3 3 4 4 3 2 1 1 1 1 1 1 0 0 0 0 0 0 0 0 0 0 0 0 0 0 0 0 0 0 0 0 0 0 0 0 1 1 1
1 1 2 2 3 3 4 4 3 2 1 1 1 1 1 1 0 0 0 0 0 0 0 0 0 0 0 0 0 0 0 0 0 0 0 0 0 0 0 1 1 1 1
2 2 2 2 2 3 3 3 3 2 1 1 1 0 0 0 0 0 0 0 0 0 0 0 0 0 0 0 0 0 0 0 0 0 0 0 0 0 1 1 1 1 1
2 2 2 2 2 2 3 3 3 2 1 1 1 1 0 0 0 0 0 0 0 0 0 0 0 0 0 0 0 0 0 0 0 0 0 0 0 1 1 1 1 1 1
3 3 2 2 2 2 2 3 2 1 1 1 1 1 0 0 0 0 0 0 0 0 0 0 0 0 0 0 0 0 0 0 0 0 0 0 0 0 1 1 1 1 1
4 3 2 2 1 1 2 2 2 1 0 0 0 0 0 0 0 0 0 0 0 0 0 0 0 0 0 0 0 0 0 0 0 0 0 0 0 0 1 1 1 1 1
4 3 2 1 1 1 1 2 1 1 0 0 0 0 0 0 0 0 0 0 0 0 0 0 0 0 0 0 0 0 0 0 0 0 0 0 0 0 1 1 1 1 1
4 3 2 1 1 1 1 2 1 1 1 1 0 0 0 0 0 0 0 0 0 0 0 0 0 0 0 0 0 0 0 0 0 0 0 0 0 0 1 1 1 1 1
3 2 1 1 1 1 1 1 1 1 1 1 1 1 0 0 0 0 0 0 0 0 0 0 0 0 0 0 0 0 0 0 0 0 0 0 0 0 0 1 1 1 1
2 1 1 1 1 0 1 1 1 1 1 1 1 1 0 0 0 0 0 0 0 0 0 0 0 0 0 0 0 0 0 0 0 0 0 0 0 0 0 0 1 1 0
1 1 1 0 0 0 1 1 1 1 1 1 1 1 0 0 0 0 0 0 0 1 1 0 0 0 0 0 0 0 0 0 0 0 0 0 0 0 0 0 1 1 0
1 1 1 1 1 0 0 1 1 1 1 1 1 1 0 0 0 0 0 0 0 1 1 0 0 0 0 0 0 0 0 0 0 0 0 0 0 0 0 0 0 0 0
1 1 1 1 1 1 0 1 1 1 1 1 1 1 0 0 0 0 1 1 1 0 0 0 0 0 0 0 0 0 0 0 0 0 0 0 0 0 0 0 0 0 0
1 1 1 1 1 1 1 1 1 1 1 1 1 1 1 0 0 1 1 1 1 0 0 0 0 0 0 0 0 0 0 0 0 0 0 0 0 0 0 0 0 1 1
1 1 1 1 1 1 0 1 1 1 0 1 1 1 0 0 0 0 0 0 0 0 0 0 1 1 0 0 0 0 0 0 0 0 0 0 0 0 0 0 0 1 1
1 1 1 1 1 0 0 1 1 1 1 0 0 0 0 0 0 0 0 0 0 0 0 0 1 1 0 0 0 0 0 0 0 0 0 0 0 0 0 0 0 0 1
Wind_Speed
2 1 1 2 2 2 2 3 3 3 4 4 5 5 5 5 5 5 6 6 6 6 6 6 6 6 5 5 5 4 4 4 6 5 4 4 3 3 3 3 4 5 5
2 1 1 1 2 2 3 3 4 4 4 5 5 5 6 6 5 5 6 7 6 7 7 6 7 7 6 5 5 6 6 5 6 7 5 4 5 4 3 4 4 4 4
1 1 1 1 2 2 3 4 4 4 5 5 5 5 6 6 6 6 6 6 6 6 6 7 7 7 6 6 6 6 6 7 5 5 6 4 4 4 3 3 4 3 4
1 1 2 2 2 3 4 4 4 4 5 5 5 5 5 6 7 6 6 5 6 6 6 7 7 7 7 6 6 6 6 6 6 6 6 5 4 4 3 3 3 2 2
1 3 2 2 2 3 4 4 4 5 6 5 5 5 6 6 6 3 4 6 6 7 7 7 9 9 10 8 8 6 5 5 5 5 5 5 4 3 3 2 2 2 2
3 3 3 2 3 4 4 5 4 4 5 5 5 6 7 7 2 2 3 6 6 8 8 8 9 10 11 12 13 13 10 8 7 6 5 6 5 4 3 3 2 2 2
4 4 3 3 4 4 5 4 5 5 5 5 6 6 6 6 5 6 6 6 8 8 8 8 10 11 9 6 8 11 13 16 14 9 9 8 7 5 4 4 3 3 3
5 4 3 3 4 4 4 4 4 4 5 5 6 6 6 8 6 7 8 7 9 9 9 9 9 8 9 7 7 7 7 8 10 11 10 10 9 6 5 4 4 4 3
5 3 3 3 4 4 5 5 4 4 5 6 6 6 6 7 7 8 8 6 7 9 9 9 8 8 8 7 6 7 8 7 10 13 13 13 13 10 6 3 3 3 3
4 3 3 3 4 5 5 5 5 4 5 7 7 6 7 7 7 9 9 6 7 8 7 7 9 8 8 6 5 6 8 7 7 8 7 8 9 10 11 7 5 4 4
2 2 3 4 4 6 6 4 5 5 6 6 7 8 8 8 8 10 11 6 7 7 7 7 4 3 5 6 6 7 8 7 7 7 7 7 6 6 7 8 7 6 5
3 3 4 4 6 6 4 4 5 5 7 7 7 7 6 5 6 8 12 12 9 7 8 7 4 3 5 7 8 9 10 8 7 7 7 7 6 6 6 7 8 7 6
3 4 5 6 6 6 6 6 6 5 6 5 5 5 5 4 3 6 10 12 12 9 8 10 11 11 10 9 13 13 10 7 8 8 8 7 6 6 5 5 6 6 6
4 4 5 6 7 7 5 5 6 5 5 5 5 6 5 5 3 0 2 4 8 8 8 9 12 14 12 12 10 9 8 8 8 8 7 6 5 5 5 5 5 5 5
5 5 6 7 8 6 6 6 6 6 5 6 6 6 6 6 4 2 4 5 5 5 6 7 8 7 6 7 7 7 7 7 9 8 7 6 6 5 5 5 5 5 6
5 6 6 6 6 5 5 6 8 10 10 13 13 10 8 9 10 9 9 8 8 6 5 8 8 8 7 7 6 6 6 7 7 7 7 6 6 5 4 4 5 6 6
6 6 6 7 7 6 6 6 6 6 11 14 15 15 15 15 14 13 12 10 10 6 6 8 9 8 7 7 7 6 6 6 6 6 6 6 5 5 4 5 5 6 6
7 8 7 7 7 7 7 7 6 6 5 5 9 15 17 17 17 16 12 6 7 7 8 8 8 8 7 7 7 6 5 5 5 5 6 5 5 5 5 5 5 6 6
7 7 7 7 7 7 7 8 7 7 6 6 5 4 9 12 14 14 8 6 8 8 7 7 7 6 6 6 6 5 5 4 5 5 5 5 5 5 5 6 5 7 6
7 10 10 8 8 8 8 8 7 6 6 5 5 5 3 4 5 6 6 7 8 8 7 6 6 5 5 5 5 5 5 4 5 5 5 5 5 5 6 6 6 6 6
8 8 9 9 9 9 8 7 7 6 6 6 5 4 4 5 7 6 5 5 5 5 5 5 5 5 5 4 4 5 5 5 5 5 5 5 5 5 5 6 6 6 5
8 8 8 7 7 7 7 7 7 7 7 7 4 4 4 5 6 6 5 5 4 4 4 5 5 5 4 3 4 4 4 4 4 4 4 5 5 5 5 5 5 5 5
7 9 9 8 8 7 7 7 6 7 6 5 5 4 4 4 5 5 5 5 4 4 4 4 4 5 4 3 3 4 4 3 3 3 3 4 4 4 5 5 6 6 6
8 9 9 8 7 7 7 6 6 6 5 5 5 5 5 4 4 5 5 4 4 4 3 3 4 5 6 4 3 3 2 2 3 3 3 3 4 4 4 4 5 5 6
8 8 8 8 7 7 6 6 5 5 5 5 5 5 4 4 4 4 4 4 5 4 5 5 4 4 5 4 3 2 0 0 1 3 3 2 3 4 4 5 4 5 5
9 8 8 7 7 6 5 5 5 5 4 5 5 5 4 4 4 4 4 4 4 4 5 5 4 4 3 2 2 1 0 1 1 2 3 3 3 4 5 4 6 5 6
Wind_Direction
198 185 299 284 305 308 288 286 301 309 306 295 292 292 292 288 285 282 283 283 282 280 281 280 278 277 275 280 282 277 269 264 270 276 273 277 270 268 271 256 242 230 227
173 177 243 270 295 306 308 319 315 304 297 295 296 294 290 290 291 291 289 291 291 289 286 283 281 280 275 270 271 275 275 270 269 276 278 274 268 258 252 257 254 240 228
125 287 276 279 294 295 294 293 292 291 291 291 287 287 289 291 288 283 278 279 281 284 286 285 282 281 280 274 273 272 275 276 274 274 275 267 263 256 250 258 258 248 234
116 277 281 284 281 282 287 289 287 289 289 284 283 283 284 283 279 278 280 283 287 289 288 286 284 277 272 271 272 266 269 271 275 276 274 273 264 256 236 245 264 246 232
223 259 263 270 282 280 280 283 283 282 286 287 289 286 283 279 280 299 307 299 304 301 293 287 282 279 275 268 270 272 281 281 279 277 276 277 269 264 248 230 246 262 241
227 255 262 268 274 273 274 272 277 281 286 285 281 283 283 288 297 278 285 299 295 290 288 286 285 277 267 252 248 249 249 256 263 268 275 275 277 280 283 259 238 254 262
226 247 250 255 270 276 286 296 294 293 291 288 285 283 283 284 264 245 250 273 282 281 281 282 283 285 297 288 265 253 248 246 242 247 259 266 275 276 284 280 259 242 250
226 240 252 261 273 281 283 283 284 286 286 287 285 285 284 285 270 244 245 259 274 274 272 270 271 275 280 285 289 282 270 257 243 237 240 248 255 259 256 262 257 259 255
235 243 261 275 284 285 283 284 285 284 285 283 281 277 276 278 264 239 235 269 273 276 273 273 271 270 269 266 266 272 275 274 270 257 236 235 238 239 231 238 243 248 252
249 260 271 274 275 278 278 278 281 282 281 282 283 285 282 278 262 233 223 260 278 284 285 279 270 269 273 258 255 264 269 273 282 288 273 251 239 233 223 218 223 229 239
261 267 265 260 260 260 259 260 269 274 278 280 280 276 271 267 257 231 221 241 269 286 292 294 299 305 277 265 260 262 267 281 288 282 277 267 245 230 222 217 213 215 225
254 265 269 266 269 275 270 267 267 268 274 272 269 270 269 261 247 223 213 225 248 272 281 286 296 295 280 268 260 259 264 270 268 265 261 257 249 236 225 220 213 209 210
246 257 264 267 265 264 261 265 267 262 269 280 288 290 289 282 255 215 215 231 243 252 270 283 291 283 275 265 253 250 251 248 249 252 252 250 247 241 226 220 216 208 205
241 252 260 261 261 258 248 259 265 269 274 283 291 293 297 298 304 319 245 253 251 252 264 279 278 268 257 258 264 250 234 238 242 248 250 248 247 245 228 211 206 199 199
244 255 262 263 263 256 251 249 254 255 255 256 272 281 289 291 299 287 288 298 306 323 319 290 280 274 263 252 246 243 238 231 233 240 246 247 243 243 233 211 203 197 201
245 255 263 270 273 271 269 269 245 238 241 232 235 245 263 264 271 273 272 273 275 278 282 276 277 276 275 271 260 251 244 238 235 234 235 236 236 234 231 216 206 204 203
242 258 268 275 281 280 277 276 278 257 239 239 241 243 244 257 267 271 273 281 276 247 249 263 267 269 271 271 266 256 248 241 235 232 232 229 230 231 223 216 212 207 203
248 255 256 261 266 271 276 277 276 277 275 263 243 236 242 248 254 260 266 283 273 238 240 254 262 265 266 267 266 263 254 245 237 234 234 230 224 224 222 219 214 210 201
260 265 265 270 273 276 278 279 277 277 276 278 281 260 237 240 248 255 246 242 261 269 265 264 264 266 268 270 268 262 256 247 238 230 230 228 223 220 219 217 212 209 204
263 260 262 271 274 274 275 277 279 277 276 279 284 284 281 270 267 254 226 230 247 261 269 276 277 271 266 267 267 261 256 247 239 233 227 221 216 215 220 218 209 200 198
277 272 252 252 261 269 275 281 283 282 283 283 282 282 283 287 285 285 274 255 254 263 271 275 279 279 272 267 264 261 259 250 239 231 226 218 213 211 214 212 203 201 198
282 282 280 276 270 270 276 280 282 281 283 285 284 285 259 271 283 284 286 286 284 277 279 281 279 278 271 268 272 265 259 258 250 232 222 218 210 207 211 209 202 193 194
277 280 281 281 280 279 275 273 277 281 283 285 287 289 283 280 287 290 293 299 300 292 288 287 285 283 278 266 261 262 264 269 267 255 232 222 211 202 201 201 198 192 192
288 284 284 283 281 282 280 281 283 285 287 293 292 291 291 291 292 296 300 301 303 295 287 283 282 284 284 273 261 258 255 283 292 277 260 232 214 207 201 197 200 201 195
294 292 291 288 283 281 280 283 285 291 296 297 296 298 304 304 301 307 317 312 308 304 304 298 290 293 298 304 300 294 14 341 326 326 303 272 234 215 211 203 200 197 192
294 291 289 288 287 285 285 286 285 289 289 294 302 304 306 308 309 317 316 311 315 314 307 303 305 318 324 331 333 344 263 256 287 306 291 268 245 233 219 214 207 202 197